This demonstration page uses our WeatherBlox Daily Observations layout. Learn more.

Left ArrowRight Arrow

39.01783, -85.05884

Hourly Observations for March 22, 2020

Temp ( °F °C ) Dew Point ( °F °C ) Humidity (%) Winds ( mph kmh ) Pressure ( in mb ) Visibility ( mi km ) Precip ( " mm )
12:52 am 00:52 Mostly Clear 33 0.6 24 -4.4 70 70 NE 10 17 30.48 1032 10 16 0.00 0.00
1:52 am 01:52 Clear 32 0 23 -5 69 69 NE 8 13 30.48 1032 10 16 0.00 0.00
2:52 am 02:52 Clear 31 -0.6 23 -5 72 72 ENE 9 15 30.48 1032 10 16 0.00 0.00
3:52 am 03:52 Mostly Clear 31 -0.6 23 -5 72 72 ENE 12 19 30.47 1032 10 16 0.00 0.00
4:52 am 04:52 Partly Cloudy 30 -1.1 23 -5 75 75 NE 10 17 30.47 1032 10 16 0.00 0.00
5:52 am 05:52 Partly Cloudy 29 -1.7 23 -5 78 78 NE 9 15 30.47 1032 10 16 0.00 0.00
6:52 am 06:52 Mostly Clear 29 -1.7 23 -5 78 78 ENE 8 13 30.47 1032 10 16 0.00 0.00
7:52 am 07:52 Partly Cloudy 29 -1.7 23 -5 78 78 NE 8 13 30.49 1033 10 16 0.00 0.00
8:52 am 08:52 Mostly Cloudy 31 -0.6 24 -4.4 76 76 ENE 10 17 30.49 1032 10 16 0.00 0.00
9:52 am 09:52 Mostly Cloudy 34 1.1 26 -3.3 73 73 ENE 13 20 30.48 1032 10 16 0.00 0.00
10:52 am 10:52 Mostly Cloudy 36 2.2 27 -2.8 70 70 E 8 13 30.45 1031 10 16 0.00 0.00
11:52 am 11:52 Mostly Cloudy 41 5 28 -2.2 60 60 NE 6 9 30.44 1031 10 16 0.00 0.00
12:52 pm 12:52 Mostly Cloudy 43 6.1 28 -2.2 56 56 ENE 7 11 30.41 1030 10 16 0.00 0.00
1:52 pm 13:52 Cloudy 42 5.6 28 -2.2 58 58 ESE 7 11 30.37 1029 10 16 0.00 0.00
2:52 pm 14:52 Cloudy with Light Rain 43 6.1 30 -1.1 60 60 ENE 14 22 30.30 1026 10 16 0.00 0.00
3:52 pm 15:52 Cloudy with Light Rain 42 5.6 31 -0.6 65 65 E 8 13 30.31 1027 10 16 0.01 0.25
4:52 pm 16:52 Cloudy 42 5.6 31 -0.6 65 65 NE 14 22 30.25 1025 10 16 0.00 0.00
5:52 pm 17:52 Mostly Cloudy 43 6.1 32 0 65 65 ENE 8 13 30.27 1025 10 16 0.00 0.00
6:52 pm 18:52 Cloudy 43 6.1 32 0 65 65 NE 9 15 30.27 1025 10 16 0.00 0.00
7:52 pm 19:52 Cloudy 42 5.6 32 0 68 68 E 13 20 30.22 1023 10 16 0.00 0.00
8:52 pm 20:52 Cloudy 42 5.6 33 0.6 71 71 E 12 19 30.20 1023 10 16 0.00 0.00
9:52 pm 21:52 Cloudy 43 6.1 34 1.1 71 71 ENE 6 9 30.21 1023 10 16 0.00 0.00
10:52 pm 22:52 Cloudy 42 5.6 35 1.7 76 76 E 6 9 30.19 1022 10 16 0.00 0.00
11:52 pm 23:52 Cloudy 44 6.7 33 0.6 65 65 SE 9 15 30.17 1022 10 16 0.00 0.00

Powered by AerisWeather